KI5NYZ-13 Weather Reports


Display with metric or nautical units.
time (UTC)temp
F
wind
direction
speed
MPH
gust
MPH
rain 1hr
in
rain 24hr
in
rain mn
in
humidity
%
barometer
mb
20260503030313 59 205 0.0 1.0 0.00 0.00 0.00 58 1019.6
20260503023312 60 223 1.0 1.0 0.00 0.00 0.00 54 1019.1
20260503020311 61 229 1.0 1.0 0.00 0.00 0.00 51 1018.7
20260503013310 64 207 1.0 2.0 0.00 0.00 0.00 45 1018.0
20260503010309 66 243 3.0 4.0 0.00 0.00 0.00 39 1017.6
20260503003308 68 259 3.0 3.0 0.00 0.00 0.00 36 1017.1
20260503000307 68 262 3.0 4.0 0.00 0.00 0.00 36 1017.2
20260502233306 68 272 3.0 4.0 0.00 0.00 0.00 35 1017.1
20260502230305 68 268 3.0 3.0 0.00 0.00 0.00 36 1017.3
20260502223304 69 213 3.0 3.0 0.00 0.00 0.00 34 1017.1
20260502220303 67 314 4.0 4.0 0.00 0.01 0.00 37 1018.0
20260502213303 66 304 5.0 5.0 0.00 0.01 0.00 38 1018.6
20260502210301 66 229 1.0 3.0 0.00 0.01 0.00 39 1019.2
20260502203300 67 261 4.0 4.0 0.00 0.01 0.00 38 1019.1
20260502200259 66 307 4.0 6.0 0.00 0.01 0.00 39 1019.7
20260502193258 64 279 5.0 5.0 0.00 0.01 0.00 41 1020.3
20260502190257 65 293 4.0 4.0 0.00 0.02 0.00 41 1020.4
20260502183256 64 343 3.0 3.0 0.00 0.03 0.00 42 1020.9
20260502180255 64 308 3.0 4.0 0.00 0.04 0.00 45 1021.4
20260502170253 61 232 4.0 4.0 0.00 0.05 0.00 50 1022.3
20260502163252 59 260 3.0 4.0 0.00 0.06 0.00 55 1022.8
20260502130245 48 11 4.0 4.0 0.00 0.17 0.00 78 1024.0
20260502123244 47 3 2.0 2.0 0.00 0.18 0.00 81 1023.9
20260502120243 47 1 3.0 3.0 0.00 0.18 0.00 81 1023.8
20260502113242 47 358 3.0 3.0 0.00 0.19 0.00 83 1023.6
20260502110241 48 343 4.0 4.0 0.00 0.20 0.00 84 1023.1
20260502103240 49 346 2.0 3.0 0.00 0.20 0.00 85 1022.7
20260502100239 49 343 0.0 1.0 0.00 0.20 0.00 80 1022.6
20260502090237 51 336 2.0 2.0 0.00 0.20 0.00 71 1021.8
20260502070233 50 162 0.0 0.0 0.00 0.21 0.00 74 1022.5
20260502063232 50 116 0.0 1.0 0.00 0.21 0.00 71 1022.3
20260502060231 51 49 0.0 0.0 0.00 0.21 0.00 73 1022.4
20260502053230 51 353 0.0 0.0 0.00 0.21 0.00 71 1022.4
20260502043228 51 14 1.0 3.0 0.00 0.21 0.21 77 1021.4
20260502040227 52 356 0.0 2.0 0.00 0.21 0.21 72 1021.0
20260502033226 52 316 0.0 0.0 0.00 0.21 0.21 69 1020.5